Tracking 17155 objects as of 28-July-2015
HD Live streaming from Space Station

GLOBALSTAR M048

Track GLOBALSTAR M048 now!
10-day predictions
GLOBALSTAR M048 is classified as:


NORAD ID: 25872
Int'l Code: 1999-041A
Perigee: 1,987.8 km
Apogee: 2,009.6 km
Inclination: 51.9 °
Period: 127.0 minutes
Semi major axis: 8369 km
RCS: 2.5743 m2 (large)
Launch date: July 25, 1999
Source: Globalstar (GLOB)
Your satellite tracking list
Your tracking list is empty





NASA's NSSDC Master Catalog

Two Line Element Set (TLE):
1 25872U 99041A   15206.48924463 -.00000067  00000-0  89263-4 0  9997
2 25872 051.9367 275.6892 0013067 046.9983 049.9265 11.33802474714844

Source of the keplerian elements: AFSPC

N2YO: 272